Terminal Aerodrome Forecast
Issued by NWS

Home | Current Version | Previous Version | Text Only | Print | Product List | Glossary On
Versions: 1 2 3 4 5 6 7 8 9 10 11 12 13 14 15 16 17 18 19 20
982
FTUS43 KGRR 090256 AAA
TAFAZO
TAF AMD
KAZO 090256Z 0903/0924 23010KT 5SM -SN OVC050
     FM090400 29008KT 3/4SM -SHSN OVC010
     FM090600 28008KT 1/2SM SHSN FG VV008
     FM091200 28008KT 2SM -SHSN BR OVC010=

USA.gov is the U.S. government's official web portal to all federal, state and local government web resources and services.